Regional Weather Roundup
Issued by NWS

Home | Current Version | Previous Version | Graphics & Text | Print | Product List | Glossary On
Versions: 1 2 3 4 5 6 7 8 9 10 11 12 13 14 15 16 17 18 19 20 21 22 23 24 25 26 27 28 29 30 31 32 33 34 35 36 37 38 39 40 41 42 43 44 45 46 47 48 49 50
000
ASUS44 KMEG 171300
RWRTN
TENNESSEE HOURLY STATE WEATHER ROUNDUP
NATIONAL WEATHER SERVICE MEMPHIS TN
700 AM CST FRI NOV 17 2017

TNZ002-004-019-021-049-052-054-088>092-171400-
WEST TENNESSEE

CITY           SKY/WX    TMP DP  RH WIND       PRES   REMARKS
MEMPHIS INTL   PTCLDY    50  41  71 SE8       30.11S
NWS MEMPHIS      N/A     45 N/A N/A MISG        N/A
JACKSON        CLEAR     39  37  92 CALM      30.14F
DYERSBURG      CLEAR     40  37  89 SE5       30.13S
$$

TNZ008-025-027-028-033-062-065-066-171400-
NORTH MIDDLE TENNESSEE

CITY           SKY/WX    TMP DP  RH WIND       PRES   REMARKS
NASHVILLE      FOG       36  34  92 CALM      30.21R VSB 1/8
CLARKSVILLE    CLEAR     30  28  92 E6        30.20S FOG     WCI  24
SMYRNA         FOG       30  29  96 NW3       30.22R VSB<1/4
CROSSVILLE     FOG       31  30  96 E3        30.17F VSB<1/4
$$

TNZ061-075-076-078-094-096-097-171400-
SOUTH MIDDLE TENNESSEE

CITY           SKY/WX    TMP DP  RH WIND       PRES   REMARKS
WINCHESTER     CLEAR     30  28  93 CALM      30.18F
$$

TNZ017-018-042-046-047-171400-
NORTHEAST TENNESSEE

CITY           SKY/WX    TMP DP  RH WIND       PRES   REMARKS
TRI CITIES     FOG       30  30 100 CALM      30.23S VSB 1/2
$$

TNZ012-013-036-069-073-074-171400-
CENTRAL EAST TENNESSEE

CITY           SKY/WX    TMP DP  RH WIND       PRES   REMARKS
KNOXVILLE      PTCLDY    39  37  92 N5        30.20R
OAK RIDGE      CLEAR     39  37  92 CALM      30.23R
$$

TNZ083-085-099-171400-
SOUTHEAST TENNESSEE

CITY           SKY/WX    TMP DP  RH WIND       PRES   REMARKS
CHATTANOOGA    PTCLDY    37  35  92 CALM      30.21R
$$

SKY/WX REPORTED AS FAIR MEANS FEW OR NO CLOUDS BELOW
12 THOUSAND FEET.




USA.gov is the U.S. government's official web portal to all federal, state and local government web resources and services.